This is the latest recevied weather packets stored in our database for station/object KC5DAQ-22. If no packets are shown the sender has not sent any weather packets the latest 10 day(s).
| Time | Temp. | Humidity | Pressure | Rain* | Wind** | Luminosity | Snow |
|---|---|---|---|---|---|---|---|
| 1777645982 | 16.67° C | 96% | 1011.1 hPa | 3.81 mm | - | 30 W/m² | - |
| 1777645922 | 16.67° C | 96% | 1011.1 hPa | 3.81 mm | - | 26 W/m² | - |
| 1777645862 | 16.67° C | 96% | 1011.1 hPa | 3.56 mm | - | 28 W/m² | - |
| 1777645804 | 16.67° C | 96% | 1011.1 hPa | 3.56 mm | - | 26 W/m² | - |
| 1777645742 | 16.67° C | 96% | 1011.1 hPa | 3.56 mm | - | 26 W/m² | - |
| 1777645682 | 16.67° C | 96% | 1011.1 hPa | 3.56 mm | - | 25 W/m² | - |
| 1777645623 | 16.67° C | 96% | 1011.1 hPa | 3.3 mm | - | 26 W/m² | - |
| 1777645563 | 16.67° C | 96% | 1011 hPa | 3.3 mm | - | 39 W/m² | - |
| 1777645503 | 16.67° C | 96% | 1011 hPa | 3.56 mm | - | 39 W/m² | - |
| 1777645442 | 16.67° C | 96% | 1010.9 hPa | 3.3 mm | - | 39 W/m² | - |
| 1777645383 | 16.67° C | 96% | 1010.7 hPa | 3.3 mm | - | 39 W/m² | - |
| 1777645323 | 16.67° C | 96% | 1010.8 hPa | 3.05 mm | - | 32 W/m² | - |
| 1777645262 | 16.67° C | 96% | 1010.8 hPa | 3.05 mm | - | 32 W/m² | - |
| 1777645204 | 16.67° C | 96% | 1010.8 hPa | 2.79 mm | - | 32 W/m² | - |
| 1777645143 | 16.67° C | 96% | 1010.9 hPa | 2.79 mm | - | 32 W/m² | - |
| 1777645082 | 16.67° C | 96% | 1010.9 hPa | 2.54 mm | - | 32 W/m² | - |
| 1777645024 | 16.67° C | 96% | 1010.9 hPa | 2.54 mm | - | 32 W/m² | - |
| 1777644963 | 16.67° C | 96% | 1010.9 hPa | 2.29 mm | - | 30 W/m² | - |
| 1777644902 | 16.67° C | 96% | 1011 hPa | 2.29 mm | - | 28 W/m² | - |
| 1777644842 | 16.67° C | 96% | 1011 hPa | 2.03 mm | - | 26 W/m² | - |
| 1777644784 | 16.67° C | 96% | 1010.9 hPa | 2.03 mm | - | 23 W/m² | - |
| 1777644722 | 16.67° C | 96% | 1010.8 hPa | 2.03 mm | - | 23 W/m² | - |
| 1777644662 | 16.67° C | 96% | 1010.7 hPa | 1.78 mm | - | 23 W/m² | - |
| 1777644605 | 16.67° C | 96% | 1010.6 hPa | 1.78 mm | - | 23 W/m² | - |
| 1777644543 | 16.67° C | 96% | 1010.6 hPa | 1.52 mm | - | 25 W/m² | - |
* Rain latest hour (hover to see other rain measurements)
** Current wind speed in m/s (hover to see current wind gust speed)